This is the latest recevied weather packets stored in our database for station/object LA5NNA. If no packets are shown the sender has not sent any weather packets the latest 10 day(s).
| Time | Temp. | Humidity | Pressure | Rain* | Wind** | Luminosity | Snow |
|---|---|---|---|---|---|---|---|
| 1777728307 | 12.78° C | 73% | 1010.9 hPa | 0 mm | - | 0 W/m² | - |
| 1777728006 | 12.78° C | 73% | 1010.9 hPa | 0 mm | - | 0 W/m² | - |
| 1777727107 | 12.78° C | 73% | 1011.1 hPa | 0 mm | - | 0 W/m² | - |
| 1777724407 | 12.22° C | 71% | 1011.8 hPa | 0 mm | - | 0 W/m² | - |
| 1777723807 | 12.22° C | 71% | 1011.8 hPa | 0 mm | - | 0 W/m² | - |
| 1777720507 | 13.33° C | 68% | 1011.7 hPa | 0 mm | - | 0 W/m² | - |
| 1777716306 | 12.78° C | 72% | 1012.1 hPa | 0 mm | - | 0 W/m² | - |
| 1777715707 | 12.78° C | 73% | 1012.1 hPa | 0 mm | - | 0 W/m² | - |
| 1777712706 | 11.67° C | 77% | 1012.4 hPa | 0 mm | - | 0 W/m² | - |
| 1777711506 | 11.11° C | 78% | 1012.7 hPa | 0 mm | - | 0 W/m² | - |
| 1777708507 | 10.56° C | 79% | 1012.8 hPa | 0 mm | - | 0 W/m² | - |
| 1777707608 | 10.56° C | 79% | 1012.9 hPa | 0 mm | - | 0 W/m² | - |
| 1777706409 | 10° C | 79% | 1013 hPa | 0 mm | - | 0 W/m² | - |
| 1777705509 | 10° C | 79% | 1013.1 hPa | 0 mm | - | 0 W/m² | - |
| 1777704009 | 9.44° C | 79% | 1013 hPa | 0 mm | - | 0 W/m² | - |
| 1777703709 | 8.89° C | 78% | 1013.1 hPa | 0 mm | - | 0 W/m² | - |
| 1777701909 | 8.33° C | 77% | 1013.2 hPa | 0 mm | - | 0 W/m² | - |
| 1777701612 | 8.33° C | 77% | 1013.2 hPa | 0 mm | - | 2 W/m² | - |
| 1777700709 | 8.33° C | 78% | 1013.3 hPa | 0 mm | - | 0 W/m² | - |
| 1777698012 | 7.78° C | 77% | 1013.4 hPa | 0 mm | - | 0 W/m² | - |
| 1777697408 | 7.78° C | 77% | 1013.4 hPa | 0 mm | - | 0 W/m² | - |
| 1777696809 | 7.78° C | 77% | 1013.5 hPa | 0 mm | - | 0 W/m² | - |
| 1777691708 | 7.78° C | 76% | 1014.7 hPa | 0 mm | - | 0 W/m² | - |
| 1777689012 | 7.78° C | 76% | 1015.3 hPa | 0 mm | - | 0 W/m² | - |
| 1777688408 | 7.78° C | 76% | 1015.3 hPa | 0 mm | - | 0 W/m² | - |
* Rain latest hour (hover to see other rain measurements)
** Current wind speed in m/s (hover to see current wind gust speed)